IZ3TCG-13 Weather Reports


Display with metric or nautical units.
time (UTC)temp
F
wind
direction
speed
MPH
gust
MPH
rain 1hr
in
rain 24hr
in
rain mn
in
humidity
%
barometer
mb
20260905161203 92 90 0.0 2.0 0.00 0.00 0.00 54 1011.9
20260905160803 91 97 0.0 2.0 0.00 0.00 0.00 52 1011.8
20260905160403 91 116 1.0 2.0 0.00 0.00 0.00 55 1011.9
20260905160004 92 116 1.0 2.0 0.00 0.00 0.00 52 1012.1
20260905155604 92 99 1.0 2.0 0.00 0.00 0.00 52 1011.9
20260905155203 92 90 1.0 2.0 0.00 0.00 0.00 52 1012.0
20260905154803 93 90 0.0 4.0 0.00 0.00 0.00 53 1011.9
20260905154403 92 89 0.0 4.0 0.00 0.00 0.00 51 1011.9
20260905154003 92 88 1.0 4.0 0.00 0.00 0.00 53 1011.9
20260905153816 93 88 2.0 4.0 0.00 0.00 0.00 53 1011.9
20260905153203 94 127 0.0 2.0 0.00 0.00 0.00 49 1011.9
20260905153015 94 122 0.0 2.0 0.00 0.00 0.00 50 1011.8
20260905152403 94 41 0.0 2.0 0.00 0.00 0.00 54 1011.9
20260905152214 94 39 0.0 2.0 0.00 0.00 0.00 51 1011.8
20260905151603 94 102 1.0 2.0 0.00 0.00 0.00 48 1011.8
20260905151203 93 108 1.0 4.0 0.00 0.00 0.00 50 1011.9
20260905150803 92 101 0.0 4.0 0.00 0.00 0.00 52 1011.8
20260905150403 92 98 2.0 4.0 0.00 0.00 0.00 52 1011.6
20260905150216 92 101 2.0 4.0 0.00 0.00 0.00 55 1011.8
20260905145603 94 116 1.0 2.0 0.00 0.00 0.00 53 1011.8
20260905145203 94 101 1.0 2.0 0.00 0.00 0.00 50 1011.8
20260905144803 95 113 2.0 2.0 0.00 0.00 0.00 52 1011.8
20260905144403 94 118 0.0 2.0 0.00 0.00 0.00 51 1012.0
20260905144003 93 120 0.0 2.0 0.00 0.00 0.00 52 1011.6
20260905143603 93 117 2.0 4.0 0.00 0.00 0.00 56 1011.7
20260905143203 92 162 0.0 4.0 0.00 0.00 0.00 54 1012.0
20260905142803 93 144 2.0 4.0 0.00 0.00 0.00 52 1012.0
20260905142615 94 138 2.0 4.0 0.00 0.00 0.00 53 1012.0
20260905142003 92 101 2.0 4.0 0.00 0.00 0.00 53 1012.0
20260905141603 94 119 2.0 4.0 0.00 0.00 0.00 53 1012.0
20260905141203 94 222 1.0 4.0 0.00 0.00 0.00 49 1011.9
20260905140803 93 265 1.0 4.0 0.00 0.00 0.00 50 1012.1
20260905140617 93 269 1.0 4.0 0.00 0.00 0.00 51 1011.8
20260905140216 94 274 4.0 6.0 0.00 0.00 0.00 50 1012.1
20260905135603 93 143 1.0 6.0 0.00 0.00 0.00 50 1011.9
20260905135203 94 185 1.0 4.0 0.00 0.00 0.00 51 1012.1
20260905134803 93 251 1.0 6.0 0.00 0.00 0.00 49 1012.0
20260905134403 91 257 3.0 6.0 0.00 0.00 0.00 52 1012.2
20260905134003 93 238 3.0 6.0 0.00 0.00 0.00 51 1012.0
20260905133603 93 219 2.0 4.0 0.00 0.00 0.00 51 1012.2
20260905133203 92 246 2.0 4.0 0.00 0.00 0.00 52 1012.1
20260905132803 91 270 2.0 6.0 0.00 0.00 0.00 54 1012.4
20260905132403 92 277 2.0 6.0 0.00 0.00 0.00 52 1012.4
20260905132003 93 274 4.0 6.0 0.00 0.00 0.00 52 1012.5
20260905131603 91 266 2.0 6.0 0.00 0.00 0.00 51 1012.3
20260905131203 90 254 2.0 6.0 0.00 0.00 0.00 54 1012.2
20260905130803 93 286 2.0 4.0 0.00 0.00 0.00 51 1012.3
20260905130403 93 322 2.0 4.0 0.00 0.00 0.00 51 1012.4
20260905130004 92 315 2.0 4.0 0.00 0.00 0.00 50 1012.5
20260905125603 92 275 2.0 4.0 0.00 0.00 0.00 50 1012.4
20260905125203 92 272 2.0 4.0 0.00 0.00 0.00 53 1012.5
20260905125015 92 274 1.0 4.0 0.00 0.00 0.00 52 1012.8
20260905124614 91 281 2.0 4.0 0.00 0.00 0.00 52 1012.5
20260905124003 90 251 2.0 4.0 0.00 0.00 0.00 53 1012.8
20260905123603 91 238 2.0 4.0 0.00 0.00 0.00 54 1012.7
20260905123203 91 232 2.0 4.0 0.00 0.00 0.00 53 1012.8
20260905122803 91 212 2.0 4.0 0.00 0.00 0.00 53 1012.4
20260905122403 90 230 2.0 4.0 0.00 0.00 0.00 56 1012.7
20260905122003 90 221 2.0 6.0 0.00 0.00 0.00 53 1012.8
20260905121815 90 207 1.0 6.0 0.00 0.00 0.00 55 1012.9
20260905121203 90 162 4.0 6.0 0.00 0.00 0.00 54 1013.0
20260905120804 90 91 2.0 4.0 0.00 0.00 0.00 54 1012.9
20260905120403 89 75 2.0 4.0 0.00 0.00 0.00 55 1012.8
20260905120003 90 68 2.0 4.0 0.00 0.00 0.00 57 1013.0
20260905115603 90 39 2.0 4.0 0.00 0.00 0.00 58 1012.9
20260905115203 89 236 2.0 4.0 0.00 0.00 0.00 57 1012.9
20260905114803 89 194 2.0 4.0 0.00 0.00 0.00 58 1012.9
20260905114403 90 130 2.0 4.0 0.00 0.00 0.00 57 1013.1
20260905114003 90 118 2.0 4.0 0.00 0.00 0.00 57 1013.1
20260905113603 90 115 1.0 4.0 0.00 0.00 0.00 59 1013.0
20260905113203 90 100 2.0 4.0 0.00 0.00 0.00 60 1013.0
20260905112803 89 97 1.0 4.0 0.00 0.00 0.00 62 1012.7
20260905112403 91 108 2.0 4.0 0.00 0.00 0.00 59 1013.0
20260905112003 90 114 1.0 4.0 0.00 0.00 0.00 61 1012.9
20260905111603 91 89 3.0 4.0 0.00 0.00 0.00 57 1012.9
20260905111203 91 38 1.0 2.0 0.00 0.00 0.00 59 1012.9
20260905110803 90 46 2.0 2.0 0.00 0.00 0.00 61 1012.8
20260905110403 89 105 2.0 2.0 0.00 0.00 0.00 60 1013.0
20260905110003 88 126 2.0 4.0 0.00 0.00 0.00 62 1012.9
20260905105603 88 146 1.0 4.0 0.00 0.00 0.00 64 1013.2
20260905105203 88 199 1.0 4.0 0.00 0.00 0.00 62 1013.2
20260905104803 89 187 1.0 4.0 0.00 0.00 0.00 60 1013.1
20260905104403 89 243 2.0 4.0 0.00 0.00 0.00 64 1013.0
20260905104215 89 247 2.0 4.0 0.00 0.00 0.00 62 1013.3
20260905103814 89 245 3.0 4.0 0.00 0.00 0.00 63 1013.3
20260905103203 89 108 1.0 4.0 0.00 0.00 0.00 61 1013.3
20260905102803 89 140 2.0 2.0 0.00 0.00 0.00 61 1013.1
20260905102618 88 151 2.0 2.0 0.00 0.00 0.00 62 1012.8
20260905102003 88 153 1.0 2.0 0.00 0.00 0.00 66 1013.1
20260905101816 88 181 2.0 4.0 0.00 0.00 0.00 65 1013.1
20260905101203 86 245 2.0 4.0 0.00 0.00 0.00 66 1013.0
20260905101015 87 255 2.0 4.0 0.00 0.00 0.00 66 1013.3
20260905100615 85 257 1.0 4.0 0.00 0.00 0.00 67 1013.1
20260904223603 74 15 1.0 2.0 0.00 0.00 0.00 82 1010.4
20260904223203 74 360 0.0 2.0 0.00 0.00 0.00 83 1010.5
20260904222803 74 0 0.0 0.0 0.00 0.00 0.00 83 1010.4
20260904222403 74 0 0.0 0.0 0.00 0.00 0.00 83 1010.7
20260904222003 74 0 0.0 0.0 0.00 0.00 0.00 84 1010.5
20260904221814 74 0 0.0 0.0 0.00 0.00 0.00 84 1010.5
20260904221203 74 0 0.0 0.0 0.00 0.00 0.00 83 1010.6
20260904220803 74 0 0.0 0.0 0.00 0.00 0.00 83 1010.5
20260904220403 75 348 0.0 2.0 0.00 0.00 0.00 82 1010.7
20260904220217 75 348 0.0 2.0 0.00 0.00 0.00 82 1010.7
20260904215603 74 292 0.0 2.0 0.00 0.00 0.00 82 1010.6
20260904215203 74 292 0.0 2.0 0.00 0.00 0.00 82 1010.7
20260904214803 75 0 0.0 0.0 0.00 0.00 0.00 82 1010.7
20260904214404 75 0 0.0 0.0 0.00 0.00 0.00 81 1010.6
20260904214003 76 0 0.0 0.0 0.00 0.00 0.00 80 1010.8
20260904213603 76 0 0.0 0.0 0.00 0.00 0.00 79 1010.6
20260904213203 75 0 0.0 0.0 0.00 0.00 0.00 80 1010.7
20260904213017 75 0 0.0 0.0 0.00 0.00 0.00 80 1010.6
20260904212403 76 292 0.0 2.0 0.00 0.00 0.00 79 1010.9
20260904212003 76 292 0.0 2.0 0.00 0.00 0.00 78 1010.9
20260904211603 76 0 0.0 0.0 0.00 0.00 0.00 79 1010.8
20260904211203 76 290 0.0 2.0 0.00 0.00 0.00 78 1010.7
20260904210803 76 289 0.0 2.0 0.00 0.00 0.00 78 1010.9
20260904210403 76 287 1.0 2.0 0.00 0.00 0.00 78 1010.8
20260904210003 76 180 0.0 2.0 0.00 0.00 0.00 79 1010.8
20260904205603 76 180 0.0 2.0 0.00 0.00 0.00 78 1010.7
20260904205203 75 180 0.0 2.0 0.00 0.00 0.00 79 1010.7
20260904204803 74 180 0.0 2.0 0.00 0.00 0.00 81 1010.6
20260904204403 74 0 0.0 0.0 0.00 0.00 0.00 81 1010.7
20260904204004 74 0 0.0 0.0 0.00 0.00 0.00 80 1010.7
20260904203603 75 0 0.0 0.0 0.00 0.00 0.00 79 1010.9
20260904203203 75 0 0.0 0.0 0.00 0.00 0.00 79 1010.7
20260904202803 75 0 0.0 0.0 0.00 0.00 0.00 78 1010.9
20260904202403 75 0 0.0 0.0 0.00 0.00 0.00 78 1010.8
20260904202216 75 0 0.0 0.0 0.00 0.00 0.00 78 1010.9
20260904201603 75 0 0.0 0.0 0.00 0.00 0.00 78 1010.7
20260904201203 75 0 0.0 0.0 0.00 0.00 0.00 78 1010.7
20260904200803 76 0 0.0 0.0 0.00 0.00 0.00 77 1010.9
20260904200403 75 0 0.0 0.0 0.00 0.00 0.00 77 1010.8
20260904200003 75 0 0.0 0.0 0.00 0.00 0.00 78 1010.9
20260904195603 76 0 0.0 0.0 0.00 0.00 0.00 77 1010.8
20260904195203 76 0 0.0 0.0 0.00 0.00 0.00 77 1010.8
20260904194803 76 0 0.0 0.0 0.00 0.00 0.00 77 1010.8
20260904194615 76 0 0.0 0.0 0.00 0.00 0.00 77 1010.9
20260904194003 76 0 0.0 0.0 0.00 0.00 0.00 76 1010.7
20260904193603 76 180 0.0 2.0 0.00 0.00 0.00 76 1010.6
20260904193203 76 180 0.0 2.0 0.00 0.00 0.00 76 1010.7
20260904192803 76 0 0.0 0.0 0.00 0.00 0.00 77 1010.8
20260904192618 76 0 0.0 0.0 0.00 0.00 0.00 77 1010.8
20260904192217 76 0 0.0 0.0 0.00 0.00 0.00 76 1010.7
20260904191603 76 0 0.0 0.0 0.00 0.00 0.00 76 1010.9
20260904191203 77 0 0.0 0.0 0.00 0.00 0.00 76 1010.8
20260904190803 77 0 0.0 0.0 0.00 0.00 0.00 76 1010.7
20260904190403 77 0 0.0 0.0 0.00 0.00 0.00 76 1010.8
20260904190003 77 0 0.0 0.0 0.00 0.00 0.00 75 1010.8
20260904185813 77 0 0.0 0.0 0.00 0.00 0.00 75 1010.8
20260904185203 78 0 0.0 0.0 0.00 0.00 0.00 75 1010.8
20260904184803 78 0 0.0 0.0 0.00 0.00 0.00 74 1010.8
20260904184403 78 0 0.0 0.0 0.00 0.00 0.00 74 1010.9
20260904184003 78 0 0.0 0.0 0.00 0.00 0.00 73 1010.5
20260904183603 79 0 0.0 0.0 0.00 0.00 0.00 73 1010.6
20260904183203 79 67 0.0 2.0 0.00 0.00 0.00 72 1010.7
20260904182803 80 70 0.0 2.0 0.00 0.00 0.00 70 1010.6
20260904182613 80 77 0.0 2.0 0.00 0.00 0.00 70 1010.8
20260904182003 80 90 0.0 2.0 0.00 0.00 0.00 70 1010.5
20260904181603 80 85 0.0 4.0 0.00 0.00 0.00 70 1010.4
20260904181203 81 84 1.0 4.0 0.00 0.00 0.00 69 1010.3
20260904181015 81 83 2.0 4.0 0.00 0.00 0.00 69 1010.4
20260904180615 81 86 2.0 4.0 0.00 0.00 0.00 68 1010.4
20260904180003 81 87 2.0 4.0 0.00 0.00 0.00 67 1010.4
20260904175603 81 90 1.0 2.0 0.00 0.00 0.00 68 1010.5
20260904175203 81 90 0.0 2.0 0.00 0.00 0.00 67 1010.1
20260904175012 81 90 1.0 2.0 0.00 0.00 0.00 67 1010.5
20260904174403 82 84 0.0 4.0 0.00 0.00 0.00 66 1010.1
20260904174003 82 90 1.0 4.0 0.00 0.00 0.00 65 1010.3
20260904173603 82 96 2.0 4.0 0.00 0.00 0.00 64 1010.4
20260904173203 83 96 2.0 4.0 0.00 0.00 0.00 64 1010.0
20260904172803 83 92 1.0 4.0 0.00 0.00 0.00 63 1010.4
20260904172403 83 89 2.0 4.0 0.00 0.00 0.00 63 1010.4
20260904172003 84 89 2.0 6.0 0.00 0.00 0.00 61 1010.1
20260904171603 84 87 2.0 8.0 0.00 0.00 0.00 60 1010.1
20260904171203 84 86 2.0 8.0 0.00 0.00 0.00 60 1010.4
20260904170803 84 82 2.0 8.0 0.00 0.00 0.00 60 1010.4
20260904170403 85 93 2.0 7.0 0.00 0.00 0.00 61 1010.2
20260904170003 85 97 3.0 7.0 0.00 0.00 0.00 60 1010.3
20260904165603 85 83 2.0 6.0 0.00 0.00 0.00 60 1010.5
20260904165414 85 81 2.0 6.0 0.00 0.00 0.00 60 1010.4
20260904165013 85 79 2.0 7.0 0.00 0.00 0.00 59 1010.8
20260904164403 86 84 3.0 7.0 0.00 0.00 0.00 58 1010.3
20260904164003 86 84 3.0 7.0 0.00 0.00 0.00 57 1010.5
20260904163816 86 84 3.0 7.0 0.00 0.00 0.00 56 1010.5
20260904163203 87 88 2.0 8.0 0.00 0.00 0.00 56 1010.7
20260904162803 87 87 4.0 8.0 0.00 0.00 0.00 54 1010.5
20260904162403 87 97 4.0 8.0 0.00 0.00 0.00 54 1010.5
20260904162003 87 89 4.0 9.0 0.00 0.00 0.00 54 1010.4
20260904161603 87 81 3.0 11.0 0.00 0.00 0.00 56 1010.6